Location: ???? ?????
(30.0052°N, 31.2891°E)
Time: 19:36:16
(UTC+00:00)

Iridium 16 - Pass Details

Date: 06 February 2023
Orbit: 766 x 768 km, 86.4° (Epoch: 20 March)

Event Time Altitude Azimuth Distance (km) Brightness Sun altitude
Rises 02:40:32 0° 180° (S) 3,219 8.8 -26.7°
Reaches altitude 10° 02:42:51 10° 181° (S) 2,296 8.0 -26.2°
Maximum altitude 02:48:00 88° 265° (W) 772 5.4 -25.1°
Drops below altitude 10° 02:53:11 10° 1° (N) 2,310 7.9 -23.9°
Sets 02:55:31 0° 2° (N) 3,240 8.7 -23.4°
